Other Public Products
Issued by NWS Charleston, SC

Current Version | Previous Version | Text Only | Print | Product List | Glossary Off
Versions: 1 2 3 4 5 6 7 8 9 10 11 12 13 14 15 16 17 18 19 20 21 22 23 24 25 26 27 28 29 30 31 32 33 34 35 36 37 38 39 40 41 42 43 44 45 46 47 48 49 50

228
FPUS82 KCHS 150912
OPUCHS

TEST...KCHS/KSAV Gateway Observations...TEST
National Weather Service Charleston SC
400 AM EST FRI DEC 15 2017

NOTE: "fair" indicates few or no clouds below 12,000 feet with no
significant weather and/or obstructions to visibility.

SCZ050-WAZ558-NCZ071-TXZ119-213-PAZ071-DCZ001-FLZ074-172-MI076-
NYZ176-178-MAZ016-IL014-TNZ027-NJZ106-GAZ044-MD014-151000-

...Gateway Observations for Charleston International...

CITY           SKY/WX    TMP DP  RH WIND       PRES   REMARKS
Chas Airport   CLOUDY    48  40  73 W6        30.00F
Seattle        CLOUDY    39  32  76 SE6       30.19F WCI  35
Charlotte      CLOUDY    40  25  55 N7        29.98S WCI  35
Dallas DFW     MOCLDY    41  27  57 NW7       30.22R
Dallas Love    PTCLDY    41  29  62 N3        30.24R
Philladelphia  MOCLDY    25   6  44 CALM      30.14S
Wash National  CLOUDY    30  11  45 E5        30.13F WCI  25
Baltimore      MOCLDY    24  10  55 E5        30.13S WCI  18
Miami          CLEAR     56  52  86 CALM      30.08R
Detroit        CLOUDY    18   8  65 S7        29.98F WCI   9
Newark         MOCLDY    20   7  57 NW7       30.11F WCI  11
Laguardia      MOCLDY    23   8  52 N9        30.10F WCI  13
J F K          PTCLDY    20   8  60 NW8       30.11F WCI  10
Boston Logan   MOCLDY    17   7  64 SW12      30.06R WCI   4
Ft. Lauderdale CLEAR     56  51  84 CALM      30.08R
Chicago O`Hare CLOUDY    24  14  65 SW7       29.94F WCI  16
Chicago Midway CLOUDY    23  14  68 SW10      29.97F WCI  12
Houston Bush   CLOUDY    52  34  50 N15       30.16R
Houston Hobby  CLOUDY    52  36  54 N14       30.14R
Nashville      CLOUDY    33  21  61 NW6       30.09S WCI  28
Atlanta        MOCLDY    41  34  76 NW6       29.98S

$$

GAZ044-118-TXZ119-213-NCZ071-DCZ001-MDZ014-506-PAZ021-071-NJZ106-
NYZ176-178-MAZ106-OHZ011-021-055-MIZ076-KYZ091-ILZ014-INZ047-
MNZ060-ONZ431-151000-

...Gateway Observations for Savannah International...

CITY           SKY/WX    TMP DP  RH WIND       PRES   REMARKS
Savannah Arpt  CLOUDY    47  40  76 CALM      30.02S
Atlanta        MOCLDY    41  34  76 NW6       29.98S
Charlotte      CLOUDY    40  25  55 N7        29.98S WCI  35
Dallas DFW     MOCLDY    41  27  57 NW7       30.22R
Houston Bush   CLOUDY    52  34  50 N15       30.16R
Wash National  CLOUDY    30  11  45 E5        30.13F WCI  25
Wash Dulles    MOCLDY    23  14  68 CALM      30.12S
Baltimore      MOCLDY    24  10  55 E5        30.13S WCI  18
Philadelphia   MOCLDY    25   6  44 CALM      30.14S
Newark         MOCLDY    20   7  57 NW7       30.11F WCI  11
Laguardia      MOCLDY    23   8  52 N9        30.10F WCI  13
J F K          PTCLDY    20   8  60 NW8       30.11F WCI  10
Boston         MOCLDY    17   7  64 SW12      30.06R WCI   4
Pittsburg      CLOUDY    15  10  80 CALM      29.98F
Akron          CLOUDY    11   6  81 W3        29.99F
Cleveland      CLOUDY     7   3  84 SW5       30.04F WCI  -2
Cincinnati     CLOUDY    23  18  81 SW3       30.03S
Columbus       PTCLDY    19  18  93 CALM      30.03F
Detroit        CLOUDY    18   8  65 S7        29.98F WCI   9
Chicago O`Hare CLOUDY    24  14  65 SW7       29.94F WCI  16
Minneapolis    LGT SNOW  23  20  88 W7        29.94F FOG     WCI  15
Indianapolis   CLOUDY    25  15  66 S7        30.03S WCI  17
Toronto Canada PTCLDY    12   7  79 SW6       29.95F WCI   3

$$




USA.gov is the U.S. government's official web portal to all federal, state and local government web resources and services.